Time,TemperatureF,DewpointF,PressureIn,WindDirection,WindDirectionDegrees,WindSpeedMPH,WindSpeedGustMPH,Humidity,HourlyPrecipIn,Conditions,Clouds,dailyrainin,SoftwareType,DateUTC
2013-01-16 00:02:00,18.0,15.0,30.16,North,5,0.0,0.0,88,0.00,,,0.00,,2013-01-16 06:02:00,
2013-01-16 00:12:00,18.0,15.0,30.16,North,5,0.0,0.0,88,0.00,,,0.00,,2013-01-16 06:12:00,
2013-01-16 00:22:00,17.0,14.0,30.16,North,5,0.0,0.0,87,0.00,,,0.00,,2013-01-16 06:22:00,
2013-01-16 00:32:00,17.0,14.0,30.15,North,5,0.0,0.0,89,0.00,,,0.00,,2013-01-16 06:32:00,
2013-01-16 00:43:00,17.0,14.0,30.15,North,5,0.0,0.0,89,0.00,,,0.00,,2013-01-16 06:43:00,
2013-01-16 00:52:00,17.0,14.0,30.15,North,5,0.0,0.0,88,0.00,,,0.00,,2013-01-16 06:52:00,
2013-01-16 01:02:00,17.0,14.0,30.14,North,5,0.0,1.0,89,0.00,,,0.00,,2013-01-16 07:02:00,
2013-01-16 01:12:00,17.0,14.0,30.14,North,5,0.0,1.0,89,0.00,,,0.00,,2013-01-16 07:12:00,
2013-01-16 01:22:00,16.0,13.0,30.14,North,5,0.0,1.0,89,0.00,,,0.00,,2013-01-16 07:22:00,
2013-01-16 01:32:00,16.0,13.0,30.15,North,5,0.0,1.0,88,0.00,,,0.00,,2013-01-16 07:32:00,
2013-01-16 01:42:00,16.0,13.0,30.15,North,5,0.0,1.0,88,0.00,,,0.00,,2013-01-16 07:42:00,
2013-01-16 01:52:00,16.0,13.0,30.15,NNW,331,0.0,3.0,89,0.00,,,0.00,,2013-01-16 07:52:00,
2013-01-16 02:02:00,17.0,14.0,30.16,NW,318,1.0,3.0,89,0.00,,,0.00,,2013-01-16 08:02:00,
2013-01-16 02:12:00,17.0,14.0,30.16,NW,318,1.0,3.0,89,0.00,,,0.00,,2013-01-16 08:12:00,
2013-01-16 02:22:00,18.0,15.0,30.16,NW,318,0.0,2.0,89,0.00,,,0.00,,2013-01-16 08:22:00,
2013-01-16 02:32:00,18.0,15.0,30.16,NW,318,0.0,2.0,89,0.00,,,0.00,,2013-01-16 08:32:00,
2013-01-16 02:42:00,18.0,15.0,30.16,NW,318,0.0,2.0,89,0.00,,,0.00,,2013-01-16 08:42:00,
2013-01-16 02:52:00,19.0,16.0,30.16,NW,318,0.0,0.0,89,0.00,,,0.00,,2013-01-16 08:52:00,
2013-01-16 03:02:00,19.0,16.0,30.16,NW,318,0.0,1.0,89,0.00,,,0.00,,2013-01-16 09:02:00,
2013-01-16 03:12:00,19.0,16.0,30.16,NW,318,0.0,1.0,89,0.00,,,0.00,,2013-01-16 09:12:00,
2013-01-16 03:22:00,19.0,16.0,30.15,NW,318,0.0,1.0,89,0.00,,,0.00,,2013-01-16 09:22:00,
2013-01-16 03:32:00,19.0,16.0,30.14,NW,318,0.0,0.0,88,0.00,,,0.00,,2013-01-16 09:32:00,
2013-01-16 03:42:00,19.0,16.0,30.14,NW,318,0.0,0.0,88,0.00,,,0.00,,2013-01-16 09:42:00,
2013-01-16 03:52:00,18.0,15.0,30.14,NW,318,0.0,0.0,88,0.00,,,0.00,,2013-01-16 09:52:00,
2013-01-16 04:02:00,17.0,14.0,30.13,NW,318,0.0,0.0,88,0.00,,,0.00,,2013-01-16 10:02:00,
2013-01-16 04:12:00,17.0,14.0,30.13,NW,318,0.0,0.0,88,0.00,,,0.00,,2013-01-16 10:12:00,
2013-01-16 04:22:00,17.0,14.0,30.11,NW,318,0.0,1.0,89,0.00,,,0.00,,2013-01-16 10:22:00,
2013-01-16 04:32:00,17.0,14.0,30.11,NW,318,0.0,0.0,88,0.00,,,0.00,,2013-01-16 10:32:00,
2013-01-16 04:42:00,17.0,14.0,30.11,NW,318,0.0,0.0,88,0.00,,,0.00,,2013-01-16 10:42:00,
2013-01-16 04:52:00,17.0,14.0,30.11,NW,318,0.0,0.0,88,0.00,,,0.00,,2013-01-16 10:52:00,
2013-01-16 05:02:00,16.0,13.0,30.10,NW,318,0.0,0.0,88,0.00,,,0.00,,2013-01-16 11:02:00,
2013-01-16 05:12:00,16.0,13.0,30.10,NW,318,0.0,0.0,88,0.00,,,0.00,,2013-01-16 11:12:00,
2013-01-16 05:22:00,16.0,13.0,30.09,NW,318,0.0,1.0,89,0.00,,,0.00,,2013-01-16 11:22:00,
2013-01-16 05:33:00,16.0,13.0,30.08,NW,318,0.0,1.0,89,0.00,,,0.00,,2013-01-16 11:33:00,
2013-01-16 05:42:00,16.0,13.0,30.08,NW,318,0.0,1.0,89,0.00,,,0.00,,2013-01-16 11:42:00,
2013-01-16 05:52:00,15.0,12.0,30.08,NW,318,0.0,0.0,88,0.00,,,0.00,,2013-01-16 11:52:00,
2013-01-16 06:03:00,15.0,12.0,30.08,NW,318,0.0,1.0,88,0.00,,,0.00,,2013-01-16 12:03:00,
2013-01-16 06:13:00,15.0,12.0,30.08,NW,318,0.0,1.0,88,0.00,,,0.00,,2013-01-16 12:13:00,
2013-01-16 06:22:00,15.0,12.0,30.08,WSW,245,0.0,3.0,88,0.00,,,0.00,,2013-01-16 12:22:00,
2013-01-16 06:33:00,16.0,13.0,30.07,WSW,245,0.0,2.0,87,0.00,,,0.00,,2013-01-16 12:33:00,
2013-01-16 06:43:00,16.0,13.0,30.07,WSW,245,0.0,2.0,87,0.00,,,0.00,,2013-01-16 12:43:00,
2013-01-16 06:53:00,16.0,13.0,30.07,WSW,245,0.0,2.0,88,0.00,,,0.00,,2013-01-16 12:53:00,
2013-01-16 07:03:00,16.0,13.0,30.08,WSW,245,0.0,2.0,86,0.00,,,0.00,,2013-01-16 13:03:00,
2013-01-16 07:12:00,16.0,13.0,30.08,WSW,245,0.0,2.0,86,0.00,,,0.00,,2013-01-16 13:12:00,
2013-01-16 07:22:00,16.0,13.0,30.08,WSW,245,0.0,2.0,86,0.00,,,0.00,,2013-01-16 13:22:00,
2013-01-16 07:33:00,16.0,13.0,30.08,WSW,245,0.0,2.0,86,0.00,,,0.00,,2013-01-16 13:33:00,
2013-01-16 07:43:00,16.0,13.0,30.08,WSW,245,0.0,2.0,86,0.00,,,0.00,,2013-01-16 13:43:00,
2013-01-16 07:52:00,17.0,13.0,30.07,WSW,243,0.0,4.0,84,0.00,,,0.00,,2013-01-16 13:52:00,
2013-01-16 08:03:00,17.0,13.0,30.07,SW,223,1.0,6.0,84,0.00,,,0.00,,2013-01-16 14:03:00,
2013-01-16 08:12:00,17.0,13.0,30.07,SW,223,1.0,6.0,84,0.00,,,0.00,,2013-01-16 14:12:00,
2013-01-16 08:23:00,18.0,14.0,30.08,WSW,249,1.0,6.0,84,0.00,,,0.00,,2013-01-16 14:23:00,
2013-01-16 08:33:00,19.0,15.0,30.07,WSW,246,1.0,6.0,83,0.00,,,0.00,,2013-01-16 14:33:00,
2013-01-16 08:42:00,19.0,15.0,30.07,WSW,246,1.0,6.0,83,0.00,,,0.00,,2013-01-16 14:42:00,
2013-01-16 08:53:00,20.0,16.0,30.08,SW,235,2.0,9.0,83,0.00,,,0.00,,2013-01-16 14:53:00,
2013-01-16 09:03:00,21.0,16.0,30.08,WSW,243,2.0,7.0,81,0.00,,,0.00,,2013-01-16 15:03:00,
2013-01-16 09:12:00,21.0,16.0,30.08,WSW,243,2.0,7.0,81,0.00,,,0.00,,2013-01-16 15:12:00,
2013-01-16 09:23:00,22.0,16.0,30.09,West,265,3.0,7.0,79,0.00,,,0.00,,2013-01-16 15:23:00,
2013-01-16 09:33:00,23.0,17.0,30.08,SSW,197,4.0,8.0,77,0.00,,,0.00,,2013-01-16 15:33:00,
2013-01-16 09:43:00,23.0,17.0,30.08,SSW,197,4.0,8.0,77,0.00,,,0.00,,2013-01-16 15:43:00,
2013-01-16 09:52:00,24.0,18.0,30.07,WSW,237,4.0,9.0,77,0.00,,,0.00,,2013-01-16 15:52:00,
2013-01-16 10:03:00,24.0,18.0,30.06,SW,220,5.0,12.0,78,0.00,,,0.00,,2013-01-16 16:03:00,
2013-01-16 10:12:00,24.0,18.0,30.06,SW,220,5.0,12.0,78,0.00,,,0.00,,2013-01-16 16:12:00,
2013-01-16 10:22:00,25.0,19.0,30.06,WNW,300,5.0,11.0,76,0.00,,,0.00,,2013-01-16 16:22:00,
2013-01-16 10:33:00,26.0,19.0,30.05,SW,234,6.0,16.0,73,0.00,,,0.00,,2013-01-16 16:33:00,
2013-01-16 10:42:00,26.0,19.0,30.05,SW,234,6.0,16.0,73,0.00,,,0.00,,2013-01-16 16:42:00,
2013-01-16 10:52:00,27.0,20.0,30.05,SSW,202,4.0,12.0,73,0.00,,,0.00,,2013-01-16 16:52:00,
2013-01-16 11:03:00,27.0,19.0,30.05,SW,234,6.0,13.0,71,0.00,,,0.00,,2013-01-16 17:03:00,
2013-01-16 11:12:00,27.0,19.0,30.05,SW,234,6.0,13.0,71,0.00,,,0.00,,2013-01-16 17:12:00,
2013-01-16 11:23:00,28.0,20.0,30.04,WSW,251,6.0,12.0,72,0.00,,,0.00,,2013-01-16 17:23:00,
2013-01-16 11:33:00,28.0,20.0,30.04,WSW,251,6.0,12.0,72,0.00,,,0.00,,2013-01-16 17:33:00,
2013-01-16 11:43:00,28.0,20.0,30.04,WSW,251,6.0,12.0,72,0.00,,,0.00,,2013-01-16 17:43:00,
2013-01-16 11:53:00,30.0,22.0,30.02,WSW,245,6.0,11.0,71,0.00,,,0.00,,2013-01-16 17:53:00,
2013-01-16 12:03:00,30.0,23.0,30.01,WSW,252,5.0,14.0,74,0.00,,,0.00,,2013-01-16 18:03:00,
2013-01-16 12:13:00,30.0,23.0,30.01,WSW,252,5.0,14.0,74,0.00,,,0.00,,2013-01-16 18:13:00,
2013-01-16 12:23:00,31.0,23.0,29.99,SW,215,6.0,15.0,72,0.00,,,0.00,,2013-01-16 18:23:00,
2013-01-16 12:33:00,31.0,23.0,29.98,SW,218,7.0,16.0,72,0.00,,,0.00,,2013-01-16 18:33:00,
2013-01-16 12:42:00,31.0,23.0,29.98,SW,218,7.0,16.0,72,0.00,,,0.00,,2013-01-16 18:42:00,
2013-01-16 12:53:00,32.0,24.0,29.98,WSW,237,8.0,15.0,71,0.00,,,0.00,,2013-01-16 18:53:00,
2013-01-16 13:03:00,32.0,24.0,29.98,SW,222,8.0,16.0,72,0.00,,,0.00,,2013-01-16 19:03:00,
2013-01-16 13:12:00,32.0,24.0,29.98,SW,222,8.0,16.0,72,0.00,,,0.00,,2013-01-16 19:12:00,
2013-01-16 13:23:00,32.0,24.0,29.98,SW,222,8.0,16.0,72,0.00,,,0.00,,2013-01-16 19:23:00,
2013-01-16 13:33:00,33.0,25.0,29.96,SSW,211,9.0,18.0,73,0.00,,,0.00,,2013-01-16 19:33:00,
2013-01-16 13:43:00,33.0,25.0,29.96,SSW,211,9.0,18.0,73,0.00,,,0.00,,2013-01-16 19:43:00,
2013-01-16 13:53:00,33.0,25.0,29.96,West,275,8.0,18.0,72,0.00,,,0.00,,2013-01-16 19:53:00,
2013-01-16 14:03:00,34.0,26.0,29.95,West,266,7.0,17.0,72,0.00,,,0.00,,2013-01-16 20:03:00,
2013-01-16 14:12:00,34.0,26.0,29.95,West,266,7.0,17.0,72,0.00,,,0.00,,2013-01-16 20:12:00,
2013-01-16 14:23:00,34.0,26.0,29.94,SW,236,8.0,18.0,71,0.00,,,0.00,,2013-01-16 20:23:00,
2013-01-16 14:33:00,34.0,26.0,29.93,SW,223,8.0,18.0,72,0.00,,,0.00,,2013-01-16 20:33:00,
2013-01-16 14:42:00,34.0,26.0,29.93,SW,223,8.0,18.0,72,0.00,,,0.00,,2013-01-16 20:42:00,
2013-01-16 14:53:00,34.0,26.0,29.94,West,262,9.0,15.0,72,0.01,,,0.01,,2013-01-16 20:53:00,
2013-01-16 15:03:00,34.0,26.0,29.94,SW,232,8.0,19.0,71,0.01,,,0.01,,2013-01-16 21:03:00,
2013-01-16 15:12:00,34.0,26.0,29.94,SW,232,8.0,19.0,71,0.01,,,0.01,,2013-01-16 21:12:00,
2013-01-16 15:22:00,35.0,27.0,29.96,SW,227,6.0,16.0,72,0.01,,,0.01,,2013-01-16 21:22:00,
2013-01-16 15:33:00,35.0,27.0,29.96,West,260,8.0,15.0,71,0.01,,,0.01,,2013-01-16 21:33:00,
2013-01-16 15:43:00,35.0,27.0,29.96,West,260,8.0,15.0,71,0.01,,,0.01,,2013-01-16 21:43:00,
2013-01-16 15:52:00,34.0,27.0,29.98,WSW,255,6.0,11.0,74,0.00,,,0.01,,2013-01-16 21:52:00,
2013-01-16 16:02:00,34.0,27.0,29.98,WSW,237,6.0,13.0,74,0.00,,,0.01,,2013-01-16 22:02:00,
2013-01-16 16:12:00,34.0,27.0,29.98,WSW,237,6.0,13.0,74,0.00,,,0.01,,2013-01-16 22:12:00,
2013-01-16 16:23:00,34.0,27.0,29.98,West,263,6.0,14.0,74,0.00,,,0.01,,2013-01-16 22:23:00,
2013-01-16 16:33:00,34.0,27.0,29.98,West,263,6.0,14.0,74,0.00,,,0.01,,2013-01-16 22:33:00,
2013-01-16 16:43:00,34.0,27.0,29.98,West,263,6.0,14.0,74,0.00,,,0.01,,2013-01-16 22:43:00,
2013-01-16 16:52:00,34.0,27.0,30.00,WSW,237,5.0,14.0,75,0.00,,,0.01,,2013-01-16 22:52:00,
2013-01-16 17:03:00,33.0,26.0,29.99,WSW,257,4.0,13.0,76,0.00,,,0.01,,2013-01-16 23:03:00,
2013-01-16 17:12:00,33.0,26.0,29.99,WSW,257,4.0,13.0,76,0.00,,,0.01,,2013-01-16 23:12:00,
2013-01-16 17:23:00,33.0,27.0,29.99,WSW,243,4.0,8.0,77,0.00,,,0.01,,2013-01-16 23:23:00,
2013-01-16 17:32:00,33.0,27.0,30.00,SW,234,3.0,11.0,77,0.00,,,0.01,,2013-01-16 23:32:00,
2013-01-16 17:42:00,33.0,27.0,30.00,SW,234,3.0,11.0,77,0.00,,,0.01,,2013-01-16 23:42:00,
2013-01-16 17:52:00,34.0,28.0,30.01,WSW,242,5.0,10.0,77,0.00,,,0.01,,2013-01-16 23:52:00,
2013-01-16 18:02:00,34.0,28.0,30.02,SW,223,3.0,8.0,77,0.00,,,0.01,,2013-01-17 00:02:00,
2013-01-16 18:12:00,34.0,28.0,30.02,SW,223,3.0,8.0,77,0.00,,,0.01,,2013-01-17 00:12:00,
2013-01-16 18:22:00,34.0,28.0,30.02,SW,223,3.0,8.0,77,0.00,,,0.01,,2013-01-17 00:22:00,
2013-01-16 18:32:00,34.0,27.0,30.03,NW,304,3.0,10.0,76,0.00,,,0.01,,2013-01-17 00:32:00,
2013-01-16 18:42:00,34.0,27.0,30.03,NW,304,3.0,10.0,76,0.00,,,0.01,,2013-01-17 00:42:00,
2013-01-16 18:52:00,34.0,28.0,30.04,WSW,238,3.0,9.0,77,0.00,,,0.01,,2013-01-17 00:52:00,
2013-01-16 19:02:00,34.0,27.0,30.05,SW,236,3.0,7.0,76,0.00,,,0.01,,2013-01-17 01:02:00,
2013-01-16 19:12:00,34.0,27.0,30.05,SW,236,3.0,7.0,76,0.00,,,0.01,,2013-01-17 01:12:00,
2013-01-16 19:22:00,34.0,27.0,30.06,WSW,252,3.0,7.0,76,0.00,,,0.01,,2013-01-17 01:22:00,
2013-01-16 19:33:00,34.0,27.0,30.06,West,274,3.0,7.0,76,0.00,,,0.01,,2013-01-17 01:33:00,
2013-01-16 19:42:00,34.0,27.0,30.06,West,274,3.0,7.0,76,0.00,,,0.01,,2013-01-17 01:42:00,
2013-01-16 19:52:00,34.0,27.0,30.06,West,274,3.0,7.0,76,0.00,,,0.01,,2013-01-17 01:52:00,
2013-01-16 20:02:00,34.0,27.0,30.06,WNW,295,3.0,7.0,74,0.00,,,0.01,,2013-01-17 02:02:00,
2013-01-16 20:12:00,34.0,27.0,30.06,WNW,295,3.0,7.0,74,0.00,,,0.01,,2013-01-17 02:12:00,
2013-01-16 20:22:00,34.0,27.0,30.07,West,260,3.0,7.0,74,0.00,,,0.01,,2013-01-17 02:22:00,
2013-01-16 20:32:00,34.0,27.0,30.07,SW,231,2.0,6.0,75,0.00,,,0.01,,2013-01-17 02:32:00,
2013-01-16 20:42:00,34.0,27.0,30.07,SW,231,2.0,6.0,75,0.00,,,0.01,,2013-01-17 02:42:00,
2013-01-16 20:52:00,34.0,27.0,30.07,SW,231,2.0,6.0,75,0.00,,,0.01,,2013-01-17 02:52:00,
2013-01-16 21:03:00,33.0,26.0,30.07,SW,215,2.0,8.0,75,0.00,,,0.01,,2013-01-17 03:03:00,
2013-01-16 21:12:00,33.0,26.0,30.07,SW,215,2.0,8.0,75,0.00,,,0.01,,2013-01-17 03:12:00,
2013-01-16 21:22:00,34.0,27.0,30.08,WSW,244,2.0,7.0,75,0.00,,,0.01,,2013-01-17 03:22:00,
2013-01-16 21:32:00,34.0,27.0,30.09,WSW,238,3.0,8.0,76,0.00,,,0.01,,2013-01-17 03:32:00,
2013-01-16 21:42:00,34.0,27.0,30.09,WSW,238,3.0,8.0,76,0.00,,,0.01,,2013-01-17 03:42:00,
2013-01-16 21:52:00,34.0,27.0,30.09,WSW,246,2.0,6.0,76,0.00,,,0.01,,2013-01-17 03:52:00,
2013-01-16 22:02:00,34.0,27.0,30.08,WSW,257,2.0,6.0,76,0.00,,,0.01,,2013-01-17 04:02:00,
2013-01-16 22:12:00,33.0,27.0,30.08,SW,235,2.0,6.0,77,0.00,,,0.01,,2013-01-17 04:12:00,
2013-01-16 22:22:00,33.0,27.0,30.08,SW,235,2.0,6.0,77,0.00,,,0.01,,2013-01-17 04:22:00,
2013-01-16 22:32:00,33.0,27.0,30.08,SW,230,1.0,5.0,77,0.00,,,0.01,,2013-01-17 04:32:00,
2013-01-16 22:42:00,33.0,27.0,30.08,SW,230,1.0,5.0,77,0.00,,,0.01,,2013-01-17 04:42:00,
2013-01-16 22:52:00,33.0,27.0,30.08,SW,229,2.0,4.0,77,0.00,,,0.01,,2013-01-17 04:52:00,
2013-01-16 23:04:00,34.0,28.0,30.09,SSW,194,1.0,4.0,77,0.00,,,0.01,,2013-01-17 05:04:00,
2013-01-16 23:12:00,34.0,28.0,30.09,SSW,194,1.0,4.0,77,0.00,,,0.01,,2013-01-17 05:12:00,
2013-01-16 23:22:00,33.0,27.0,30.09,SW,219,0.0,3.0,79,0.00,,,0.01,,2013-01-17 05:22:00,
2013-01-16 23:33:00,33.0,28.0,30.09,SW,236,1.0,4.0,80,0.00,,,0.01,,2013-01-17 05:33:00,
2013-01-16 23:42:00,33.0,28.0,30.09,SW,236,1.0,4.0,80,0.00,,,0.01,,2013-01-17 05:42:00,
2013-01-16 23:52:00,33.0,27.0,30.09,SSW,207,1.0,5.0,79,0.00,,,0.01,,2013-01-17 05:52:00,